Regional Weather Roundup
Issued by NWS Sioux Falls, SD

Home | Current Version | Previous Version | Text Only | Print | Product List | Glossary Off
Versions: 1 2 3 4 5 6 7 8 9 10 11 12 13 14 15 16 17 18 19 20 21 22 23 24 25 26 27 28 29 30 31 32 33 34 35 36 37 38 39 40 41 42 43 44 45 46 47 48 49 50

000
ASUS43 KFSD 031010
RWRFSD

WEATHER ROUNDUP FOR SE SOUTH DAKOTA/SW MINNESOTA/NW IOWA
NATIONAL WEATHER SERVICE SIOUX FALLS SD
500 AM CDT THU SEP 03 2015

NOTE: "FAIR" INDICATES FEW OR NO CLOUDS BELOW 12,000 FEET WITH NO
SIGNIFICANT WEATHER AND OR OBSTRUCTIONS TO VISIBILITY.


SDZ038>040-050-052>070-031100-
SOUTHEAST SOUTH DAKOTA

CITY           SKY/WX    TMP DP  RH WIND       PRES   REMARKS
BROOKINGS      CLEAR     70  66  88 SE8       29.84S
CHAMBERLAIN    CLEAR     67  65  92 E5        29.76S
HURON          CLEAR     71  69  93 SE9       29.75S
MADISON        FAIR      68  68 100 S7        29.83S
MITCHELL       CLEAR     70  69  97 SE9       29.77F
SIOUX FALLS    CLEAR     67  65  93 E5        29.82F
WINNER         FAIR      75  60  59 S13       29.76F
YANKTON        CLEAR     68  66  94 E7        29.80R
$$

MNZ071-072-080-081-089-090-097-098-031100-
SOUTHWEST MINNESOTA

CITY           SKY/WX    TMP DP  RH WIND       PRES   REMARKS
FAIRMONT       CLEAR     68  63  83 S7        29.87S
JACKSON        CLEAR     68  68 100 S7        29.88S FOG
LUVERNE        CLEAR     68  66  94 CALM      29.85S FOG
MARSHALL       CLEAR     68  64  88 SE6       29.85S
MONTEVIDEO     FOG       70  70 100 SE7       29.86S VSB 1/4
PIPESTONE      CLEAR     70  68  94 SE7       29.85S FOG
REDWOOD FALLS  FOG       70  69  97 E5        29.85S VSB 1/2
TRACY          CLEAR     71  69  96 S10       29.85S
WINDOM         CLEAR     70  66  88 CALM      29.87S
WORTHINGTON    CLEAR     66  63  88 SE6       29.87S
$$

IAZ001>003-012>014-020>022-031-032-NEZ013-014-SDZ071-031100-
NORTHWEST IOWA

CITY           SKY/WX    TMP DP  RH WIND       PRES   REMARKS
CHEROKEE       CLEAR     69  69  99 S5        29.86S
DENISON        CLEAR     72  68  88 S9        29.85S
ESTHERVILLE    CLEAR     66  65  96 S5        29.87F FOG
LE MARS        CLEAR     70  68  94 S5        29.84S
ORANGE CITY    CLEAR     72  68  88 S7        29.85S
SHELDON        CLEAR     68  68 100 SE6       29.84S
SIOUX CITY     CLEAR     69  64  84 SE8       29.83S
SPENCER        CLEAR     68  65  90 E7        29.87S FOG
STORM LAKE     CLEAR     70  68  94 S5        29.88S
$$

ABBREVIATIONS USED IN REMARKS
   TC - TEMPERATURE IN CELSIUS
  WCI - WIND CHILL INDEX
   HX - HEAT INDEX
  VSB - VISIBILITY



USA.gov is the U.S. government's official web portal to all federal, state and local government web resources and services.